Hourly Weather Acacias

Today, 22 January, Friday

Time Temperature Precipitation Wind Pressure Humidity
00:00 +25°C° 0.4 mm 1 mps 714 mmHg 82%
01:00 +25°C° 0.4 mm 2 mps 714 mmHg 85%
02:00 +25°C° 0.1 mm 2 mps 714 mmHg 86%
03:00 +25°C° 0.1 mm 1 mps 714 mmHg 86%
04:00 +25°C° 0.1 mm 1 mps 713 mmHg 86%
05:00 +25°C° 0.2 mm 1 mps 714 mmHg 86%
06:00 +25°C° 0.2 mm 1 mps 714 mmHg 86%
07:00 +25°C° 0.2 mm 1 mps 715 mmHg 85%
08:00 +26°C° 0.1 mm 1 mps 715 mmHg 80%
09:00 +27°C° 0.1 mm 1 mps 715 mmHg 75%
10:00 +28°C° 0.1 mm 1 mps 716 mmHg 70%
11:00 +29°C° 0.1 mm 1 mps 715 mmHg 67%
12:00 +30°C° 0.1 mm 2 mps 715 mmHg 64%
13:00 +31°C° 0.1 mm 2 mps 714 mmHg 60%
14:00 +30°C° 0.2 mm 2 mps 713 mmHg 63%
15:00 +30°C° 0.2 mm 1 mps 713 mmHg 66%
16:00 +29°C° 0.2 mm 1 mps 712 mmHg 68%
17:00 +28°C° 0.1 mm 1 mps 713 mmHg 73%
18:00 +27°C° 0.1 mm 1 mps 713 mmHg 78%
19:00 +25°C° 0.1 mm 1 mps 714 mmHg 82%
20:00 +25°C° 0.2 mm 1 mps 714 mmHg 83%
21:00 +25°C° 0.2 mm 1 mps 715 mmHg 84%
22:00 +24°C° 0.2 mm 1 mps 715 mmHg 84%
23:00 +24°C° 0.1 mm 1 mps 715 mmHg 82%

Tomorrow, 23 January, Saturday

Time Temperature Precipitation Wind Pressure Humidity
00:00 +24°C° 0.1 mm 1 mps 715 mmHg 81%
01:00 +24°C° 0.1 mm 1 mps 715 mmHg 79%
02:00 +24°C° 0.1 mm 1 mps 714 mmHg 79%
03:00 +24°C° 0.1 mm 1 mps 714 mmHg 79%
04:00 +24°C° 0.1 mm 1 mps 714 mmHg 80%
05:00 +24°C° 0.1 mm 1 mps 714 mmHg 81%
06:00 +24°C° 0.1 mm 1 mps 715 mmHg 82%
07:00 +22°C° 0.1 mm 0 mps 715 mmHg 83%
08:00 +25°C° 0.1 mm 1 mps 716 mmHg 81%
09:00 +26°C° 0.1 mm 1 mps 716 mmHg 80%
10:00 +26°C° 0.1 mm 1 mps 716 mmHg 79%
11:00 +27°C° 0.4 mm 1 mps 715 mmHg 75%
12:00 +29°C° 0.4 mm 2 mps 715 mmHg 71%
13:00 +30°C° 0.4 mm 2 mps 714 mmHg 67%
14:00 +30°C° 0.2 mm 2 mps 713 mmHg 67%
15:00 +29°C° 0.2 mm 2 mps 713 mmHg 67%
16:00 +29°C° 0.2 mm 1 mps 712 mmHg 68%
17:00 +28°C° 0.1 mm 1 mps 712 mmHg 72%
18:00 +27°C° 0.1 mm 1 mps 713 mmHg 76%
19:00 +25°C° 0.1 mm 1 mps 713 mmHg 80%
20:00 +25°C° 0.6 mm 1 mps 714 mmHg 82%
21:00 +24°C° 0.6 mm 1 mps 714 mmHg 84%
22:00 +24°C° 0.6 mm 1 mps 715 mmHg 86%
23:00 +24°C° 0.9 mm 1 mps 714 mmHg 86%

Day after tomorrow, 24 January, Sunday

Time Temperature Precipitation Wind Pressure Humidity
00:00 +24°C° 0.9 mm 1 mps 714 mmHg 87%
01:00 +24°C° 0.9 mm 2 mps 714 mmHg 87%
02:00 +24°C° 0.1 mm 1 mps 714 mmHg 87%
03:00 +23°C° 0.1 mm 1 mps 713 mmHg 87%
04:00 +23°C° 0.1 mm 1 mps 713 mmHg 87%
05:00 +24°C° 0 mm 1 mps 714 mmHg 86%
06:00 +24°C° 0 mm 1 mps 714 mmHg 85%
07:00 +24°C° 0 mm 1 mps 715 mmHg 84%
08:00 +26°C° 0 mm 1 mps 715 mmHg 78%
09:00 +28°C° 0 mm 2 mps 715 mmHg 71%
10:00 +30°C° 0 mm 2 mps 715 mmHg 65%
11:00 +30°C° 0.2 mm 2 mps 715 mmHg 63%
12:00 +31°C° 0.2 mm 2 mps 714 mmHg 62%
13:00 +31°C° 0.2 mm 2 mps 713 mmHg 61%
14:00 +31°C° 0.3 mm 2 mps 713 mmHg 64%
15:00 +30°C° 0.3 mm 2 mps 712 mmHg 66%
16:00 +30°C° 0.3 mm 1 mps 711 mmHg 69%
17:00 +28°C° 0.8 mm 1 mps 712 mmHg 75%
18:00 +27°C° 0.8 mm 1 mps 712 mmHg 81%
19:00 +25°C° 0.8 mm 1 mps 713 mmHg 87%
20:00 +25°C° 1.5 mm 1 mps 713 mmHg 89%
21:00 +25°C° 1.5 mm 1 mps 714 mmHg 91%
22:00 +24°C° 1.5 mm 2 mps 714 mmHg 92%
23:00 +24°C° 0.5 mm 1 mps 714 mmHg 91%

25 January, Monday

Time Temperature Precipitation Wind Pressure Humidity
00:00 +24°C° 0.5 mm 1 mps 714 mmHg 90%
01:00 +24°C° 0.5 mm 1 mps 713 mmHg 89%
02:00 +24°C° 0.1 mm 1 mps 713 mmHg 89%
03:00 +24°C° 0.1 mm 1 mps 713 mmHg 89%
04:00 +24°C° 0.1 mm 1 mps 713 mmHg 89%
05:00 +24°C° 0.4 mm 1 mps 713 mmHg 89%
06:00 +22°C° 0.4 mm 0 mps 714 mmHg 89%
07:00 +22°C° 0.4 mm 0 mps 714 mmHg 90%
08:00 +22°C° 0.4 mm 0 mps 715 mmHg 90%
09:00 +24°C° 0.4 mm 1 mps 715 mmHg 89%
10:00 +25°C° 0.4 mm 1 mps 715 mmHg 89%
11:00 +25°C° 0.1 mm 1 mps 714 mmHg 88%
12:00 +23°C° 0.1 mm 0 mps 714 mmHg 87%
13:00 +24°C° 0.1 mm 0 mps 713 mmHg 86%
14:00 +24°C° 0 mm 0 mps 712 mmHg 86%
15:00 +24°C° 0 mm 0 mps 712 mmHg 86%
16:00 +24°C° 0 mm 0 mps 711 mmHg 86%
17:00 +23°C° 0 mm 0 mps 712 mmHg 86%
18:00 +23°C° 0 mm 0 mps 712 mmHg 86%
19:00 +22°C° 0 mm 0 mps 712 mmHg 86%
20:00 +24°C° 0 mm 1 mps 713 mmHg 84%
21:00 +24°C° 0 mm 1 mps 713 mmHg 82%
22:00 +24°C° 0 mm 1 mps 714 mmHg 80%
23:00 +24°C° 0.3 mm 1 mps 714 mmHg 81%

26 January, Tuesday

Time Temperature Precipitation Wind Pressure Humidity
00:00 +24°C° 0.3 mm 1 mps 713 mmHg 83%
01:00 +24°C° 0.3 mm 2 mps 713 mmHg 84%
02:00 +24°C° 0.2 mm 1 mps 713 mmHg 84%
03:00 +24°C° 0.2 mm 1 mps 713 mmHg 84%
04:00 +24°C° 0.2 mm 1 mps 713 mmHg 84%
05:00 +24°C° 0 mm 1 mps 714 mmHg 84%
06:00 +24°C° 0 mm 1 mps 714 mmHg 84%
07:00 +24°C° 0 mm 1 mps 715 mmHg 84%
08:00 +26°C° 0.1 mm 1 mps 715 mmHg 79%
09:00 +27°C° 0.1 mm 2 mps 715 mmHg 74%
10:00 +29°C° 0.1 mm 2 mps 715 mmHg 70%
11:00 +29°C° 0.5 mm 2 mps 715 mmHg 70%
12:00 +29°C° 0.5 mm 2 mps 714 mmHg 71%
13:00 +30°C° 0.5 mm 2 mps 713 mmHg 72%
14:00 +29°C° 0.5 mm 2 mps 713 mmHg 73%
15:00 +29°C° 0.5 mm 1 mps 712 mmHg 74%
16:00 +29°C° 0.5 mm 1 mps 711 mmHg 75%
17:00 +28°C° 0.1 mm 1 mps 712 mmHg 77%
18:00 +27°C° 0.1 mm 1 mps 712 mmHg 79%
19:00 +26°C° 0.1 mm 1 mps 712 mmHg 81%
20:00 +26°C° 0 mm 1 mps 713 mmHg 81%
21:00 +26°C° 0 mm 1 mps 714 mmHg 80%
22:00 +26°C° 0 mm 1 mps 714 mmHg 80%
23:00 +25°C° 0 mm 1 mps 714 mmHg 80%

27 January, Wednesday

Time Temperature Precipitation Wind Pressure Humidity
00:00 +25°C° 0 mm 1 mps 714 mmHg 81%
01:00 +25°C° 0 mm 1 mps 714 mmHg 81%
02:00 +25°C° 0 mm 1 mps 714 mmHg 81%
03:00 +24°C° 0 mm 1 mps 714 mmHg 81%
04:00 +24°C° 0 mm 1 mps 713 mmHg 82%
05:00 +24°C° 0 mm 1 mps 714 mmHg 81%
06:00 +24°C° 0 mm 1 mps 714 mmHg 80%
07:00 +24°C° 0 mm 1 mps 715 mmHg 79%
08:00 +26°C° 0 mm 2 mps 715 mmHg 72%
09:00 +28°C° 0 mm 2 mps 716 mmHg 64%
10:00 +30°C° 0 mm 2 mps 716 mmHg 56%
11:00 +31°C° 0 mm 2 mps 715 mmHg 55%
12:00 +32°C° 0 mm 2 mps 715 mmHg 53%
13:00 +32°C° 0 mm 2 mps 714 mmHg 51%
14:00 +32°C° 0 mm 2 mps 713 mmHg 51%
15:00 +32°C° 0 mm 2 mps 713 mmHg 52%
16:00 +32°C° 0 mm 2 mps 712 mmHg 52%
17:00 +30°C° 0 mm 1 mps 712 mmHg 59%
18:00 +28°C° 0 mm 1 mps 713 mmHg 65%
19:00 +26°C° 0 mm 1 mps 713 mmHg 71%
20:00 +26°C° 0 mm 1 mps 713 mmHg 70%
21:00 +26°C° 0 mm 1 mps 714 mmHg 70%
22:00 +26°C° 0 mm 1 mps 715 mmHg 69%
23:00 +26°C° 0 mm 1 mps 715 mmHg 70%
Show more